DW6440 Weather Reports


Display with metric or nautical units.
time (UTC)temp
F
wind
direction
speed
MPH
gust
MPH
rain 1hr
in
rain 24hr
in
rain mn
in
humidity
%
barometer
mb
20260831095047 69 53 0.0 1.0 0.01 0.21 0.01 94 1019.1
20260831094545 69 53 0.0 1.0 0.01 0.21 0.01 94 1019.0
20260831094045 69 53 0.0 0.0 0.01 0.21 0.01 94 1018.8
20260831093545 69 53 0.0 2.0 0.01 0.21 0.01 94 1018.7
20260831093043 69 53 0.0 2.0 0.01 0.21 0.01 94 1018.7
20260831092543 70 53 0.0 1.0 0.01 0.21 0.01 94 1018.7
20260831092041 70 53 0.0 0.0 0.01 0.21 0.01 94 1018.6
20260831091540 70 53 0.0 0.0 0.01 0.21 0.01 94 1018.5
20260831091052 70 53 0.0 0.0 0.01 0.21 0.01 94 1018.5
20260831090541 70 53 0.0 0.0 0.01 0.21 0.01 94 1018.7
20260831090052 70 53 0.0 0.0 0.00 0.20 0.00 94 1018.5
20260831085538 70 53 0.0 0.0 0.00 0.20 0.00 94 1018.6
20260831085307 70 53 0.0 0.0 0.00 0.20 0.00 94 1018.6
20260831084540 70 53 0.0 0.0 0.00 0.20 0.00 94 1018.6
20260831084037 70 53 0.0 0.0 0.00 0.20 0.00 94 1018.6
20260831083538 70 53 0.0 1.0 0.00 0.20 0.00 94 1018.5
20260831083034 71 53 0.0 2.0 0.00 0.20 0.00 94 1018.4
20260831082533 71 53 1.0 3.0 0.00 0.20 0.00 94 1018.5
20260831082511 71 53 1.0 3.0 0.00 0.20 0.00 94 1018.4
20260831081542 71 53 0.0 2.0 0.00 0.20 0.00 94 1018.4
20260831081029 71 53 0.0 1.0 0.00 0.20 0.00 94 1018.3
20260831080526 71 53 0.0 2.0 0.00 0.20 0.00 94 1018.3
20260831080024 71 53 0.0 2.0 0.00 0.20 0.00 94 1018.3
20260831075527 71 53 0.0 1.0 0.00 0.20 0.00 94 1018.5
20260831075021 71 53 0.0 2.0 0.00 0.20 0.00 94 1018.6
20260831074522 71 53 0.0 2.0 0.00 0.20 0.00 94 1018.5
20260831074247 71 53 0.0 4.0 0.00 0.20 0.00 94 1018.4
20260831073522 71 53 1.0 4.0 0.00 0.20 0.00 94 1018.4
20260831073021 71 355 0.0 3.0 0.00 0.20 0.00 94 1018.4
20260831072523 71 349 0.0 2.0 0.00 0.20 0.00 94 1018.3
20260831072025 71 349 0.0 0.0 0.00 0.20 0.00 94 1018.3
20260831071522 71 349 0.0 0.0 0.00 0.20 0.00 94 1018.4
20260831071023 71 349 0.0 1.0 0.00 0.20 0.00 94 1018.5
20260831070522 71 349 0.0 1.0 0.00 0.20 0.00 94 1018.5
20260831070023 71 349 0.0 1.0 0.00 0.20 0.00 94 1018.6
20260831065520 71 349 0.0 2.0 0.00 0.20 0.00 94 1018.7
20260831065019 71 349 0.0 2.0 0.00 0.20 0.00 94 1018.6
20260831064744 71 349 0.0 2.0 0.00 0.20 0.00 94 1018.7
20260831064018 71 349 0.0 2.0 0.00 0.20 0.00 94 1018.7
20260831063517 71 349 0.0 2.0 0.00 0.20 0.00 94 1018.8
20260831063017 71 349 1.0 3.0 0.00 0.20 0.00 94 1018.6
20260831062516 71 349 0.0 3.0 0.00 0.20 0.00 94 1018.8
20260831062020 71 348 0.0 2.0 0.00 0.20 0.00 94 1018.9
20260831061518 71 348 0.0 1.0 0.00 0.20 0.00 94 1019.0
20260831061020 71 348 1.0 3.0 0.00 0.20 0.00 94 1019.0
20260831060519 71 348 1.0 3.0 0.00 0.20 0.00 94 1019.0
20260831060018 71 355 0.0 0.0 0.00 0.20 0.00 94 1019.0
20260831055527 71 355 0.0 0.0 0.00 0.20 0.00 94 1019.0
20260831055014 71 355 0.0 0.0 0.00 0.20 0.00 94 1019.0
20260831054516 71 355 0.0 0.0 0.00 0.20 0.00 93 1019.0
20260831054013 71 355 0.0 0.0 0.00 0.20 0.00 93 1019.0
20260831053513 71 355 0.0 0.0 0.00 0.20 0.00 93 1019.1
20260831053014 71 355 0.0 1.0 0.00 0.20 0.00 93 1019.0
20260831052520 71 355 1.0 2.0 0.00 0.20 0.00 93 1019.0
20260831052235 71 355 1.0 2.0 0.00 0.20 0.00 93 1019.1
20260831051511 71 355 1.0 2.0 0.00 0.20 0.00 94 1019.1
20260831051012 71 355 0.0 2.0 0.00 0.20 0.00 94 1019.2
20260831050513 71 355 1.0 3.0 0.00 0.20 0.00 93 1019.4
20260831050012 71 355 1.0 4.0 0.00 0.20 0.00 93 1019.3
20260831045509 71 355 0.0 4.0 0.00 0.20 0.00 93 1019.1
20260831045006 71 157 0.0 2.0 0.00 0.20 0.00 93 1019.0
20260831044722 71 157 0.0 2.0 0.00 0.20 0.00 93 1019.1
20260831044005 71 157 0.0 2.0 0.00 0.20 0.00 93 1019.1
20260831043458 71 157 0.0 2.0 0.00 0.20 0.00 93 1019.2
20260831042957 71 157 0.0 2.0 0.00 0.20 0.00 93 1019.1
20260831042455 71 157 0.0 1.0 0.00 0.20 0.00 93 1019.0
20260831041955 71 157 0.0 1.0 0.00 0.20 0.00 93 1018.8
20260831041457 71 157 0.0 1.0 0.00 0.20 0.00 93 1018.9
20260831041216 71 157 0.0 1.0 0.00 0.20 0.00 93 1018.9
20260831040454 71 157 0.0 1.0 0.00 0.20 0.00 93 1019.0
20260831035953 71 157 0.0 1.0 0.00 0.20 0.20 93 1019.0
20260831035453 71 157 0.0 1.0 0.00 0.20 0.20 93 1019.0
20260831034950 71 157 0.0 1.0 0.00 0.20 0.20 93 1019.0
20260831034449 71 157 0.0 1.0 0.00 0.20 0.20 93 1018.9
20260831033952 71 157 0.0 1.0 0.00 0.20 0.20 93 1019.0
20260831033448 71 157 0.0 1.0 0.00 0.20 0.20 93 1019.0
20260831033005 71 157 0.0 0.0 0.00 0.20 0.20 93 1019.1
20260831032449 71 157 0.0 1.0 0.00 0.20 0.20 93 1019.2
20260831032212 71 157 0.0 2.0 0.00 0.20 0.20 93 1019.2
20260831031451 71 157 0.0 2.0 0.01 0.20 0.20 92 1019.2
20260831030952 71 157 0.0 0.0 0.01 0.20 0.20 92 1019.2
20260831030444 71 157 0.0 2.0 0.01 0.20 0.20 92 1019.2
20260831025945 71 157 1.0 5.0 0.01 0.20 0.20 92 1019.4
20260831025445 71 157 1.0 5.0 0.01 0.20 0.20 92 1019.4
20260831024943 71 28 1.0 4.0 0.01 0.20 0.20 92 1019.5
20260831024659 71 29 0.0 4.0 0.01 0.20 0.20 92 1019.5
20260831023945 71 38 0.0 0.0 0.01 0.20 0.20 92 1019.8
20260831023440 71 38 0.0 0.0 0.01 0.20 0.20 92 1019.7
20260831022941 71 38 0.0 1.0 0.01 0.20 0.20 92 1019.6
20260831022437 72 38 1.0 3.0 0.01 0.20 0.20 92 1019.6
20260831022422 72 36 1.0 4.0 0.01 0.20 0.20 91 1019.6
20260831021434 72 36 2.0 9.0 0.00 0.19 0.19 91 1019.7
20260831020950 72 34 5.0 15.0 0.00 0.19 0.19 91 1019.6
20260831020436 73 36 5.0 15.0 0.00 0.19 0.19 91 1019.9
20260831015934 74 5 3.0 9.0 0.00 0.19 0.19 92 1019.8
20260831015433 74 5 1.0 5.0 0.00 0.19 0.19 92 1019.5
20260831014934 74 5 2.0 6.0 0.01 0.19 0.19 93 1019.4
20260831014434 74 0 2.0 6.0 0.02 0.19 0.19 92 1019.3
20260831013933 74 355 1.0 3.0 0.04 0.19 0.19 92 1019.3
20260831013432 74 231 0.0 2.0 0.16 0.19 0.19 92 1019.2
20260831013152 74 230 0.0 0.0 0.18 0.19 0.19 92 1019.1
20260831012426 74 230 0.0 0.0 0.18 0.19 0.19 92 1019.2
20260831011920 74 230 0.0 2.0 0.19 0.19 0.19 92 1019.3
20260831011423 74 230 0.0 3.0 0.19 0.19 0.19 92 1019.4
20260831010924 75 231 1.0 3.0 0.19 0.19 0.19 92 1019.4
20260831010423 75 232 1.0 3.0 0.19 0.19 0.19 92 1019.3
20260831005922 75 232 1.0 3.0 0.19 0.19 0.19 92 1019.1
20260831005420 75 232 1.0 4.0 0.19 0.19 0.19 91 1019.1
20260831004922 75 231 1.0 6.0 0.18 0.18 0.18 91 1018.9
20260831004423 75 238 2.0 6.0 0.17 0.17 0.17 91 1019.1
20260831003922 76 148 1.0 5.0 0.13 0.13 0.14 91 1018.8
20260831003421 76 266 0.0 3.0 0.03 0.03 0.05 91 1019.2
20260831002922 77 165 0.0 1.0 0.01 0.01 0.01 91 1019.0
20260831002422 77 165 0.0 2.0 0.01 0.01 0.01 90 1018.8
20260831001923 77 165 0.0 2.0 0.00 0.00 0.00 89 1018.8
20260831001422 77 165 0.0 1.0 0.00 0.00 0.00 89 1018.4
20260831000921 77 165 0.0 1.0 0.00 0.00 0.00 89 1018.4
20260831000425 77 165 0.0 0.0 0.00 0.00 0.00 89 1018.4
20260830235920 77 165 0.0 0.0 0.00 0.00 0.00 88 1018.4
20260830235424 77 165 0.0 0.0 0.00 0.00 0.00 88 1018.2
20260830234919 78 165 0.0 0.0 0.00 0.00 0.00 88 1018.4
20260830234416 78 165 0.0 0.0 0.00 0.00 0.00 88 1018.4
20260830233913 78 165 0.0 1.0 0.00 0.00 0.00 88 1018.2
20260830233410 78 165 0.0 1.0 0.00 0.00 0.00 88 1018.3
20260830232909 78 165 0.0 0.0 0.00 0.00 0.00 87 1018.4
20260830232409 78 165 0.0 0.0 0.00 0.00 0.00 87 1018.5
20260830231908 78 165 0.0 0.0 0.00 0.00 0.00 87 1018.6
20260830231406 78 165 0.0 0.0 0.00 0.00 0.00 86 1018.6
20260830230904 78 165 0.0 1.0 0.00 0.00 0.00 86 1018.5
20260830230417 79 165 0.0 1.0 0.00 0.00 0.00 86 1018.5
20260830225903 79 165 0.0 0.0 0.00 0.00 0.00 85 1018.5
20260830225401 79 165 0.0 0.0 0.00 0.00 0.00 85 1018.4
20260830224900 79 165 0.0 2.0 0.00 0.00 0.00 86 1018.3
20260830224359 79 165 1.0 4.0 0.00 0.00 0.00 85 1018.3
20260830223855 79 165 1.0 4.0 0.00 0.00 0.00 84 1018.3
20260830223356 80 165 1.0 4.0 0.00 0.00 0.00 84 1018.3
20260830222856 80 165 1.0 6.0 0.00 0.00 0.00 82 1018.3
20260830222355 81 165 1.0 6.0 0.00 0.00 0.00 82 1018.2
20260830221856 81 177 1.0 4.0 0.00 0.00 0.00 82 1018.2
20260830221358 81 184 1.0 5.0 0.00 0.00 0.00 82 1018.3
20260830220855 81 184 2.0 5.0 0.00 0.00 0.00 81 1018.4
20260830220624 82 178 2.0 4.0 0.00 0.00 0.00 81 1018.3
20260830215854 82 180 2.0 5.0 0.00 0.00 0.00 80 1018.3
20260830215625 82 198 2.0 5.0 0.00 0.00 0.00 80 1018.3
20260830214854 83 203 3.0 7.0 0.00 0.00 0.00 79 1018.3
20260830214358 83 202 2.0 7.0 0.00 0.00 0.00 78 1018.3
20260830213854 83 169 3.0 6.0 0.00 0.00 0.00 77 1018.2
20260830213356 82 220 3.0 8.0 0.00 0.00 0.00 78 1018.2
20260830212854 81 209 3.0 8.0 0.00 0.00 0.00 78 1018.2
20260830212353 82 215 2.0 8.0 0.00 0.00 0.00 78 1018.2
20260830212118 82 207 2.0 4.0 0.00 0.00 0.00 78 1018.1
20260830211620 81 206 2.0 4.0 0.00 0.00 0.00 78 1018.2
20260830211340 81 205 3.0 8.0 0.00 0.00 0.00 78 1018.3
20260830210344 82 205 4.0 9.0 0.00 0.00 0.00 77 1018.3
20260830205845 82 275 4.0 9.0 0.00 0.00 0.00 76 1018.3
20260830205342 82 181 4.0 9.0 0.00 0.00 0.00 74 1018.3
20260830204842 83 233 2.0 8.0 0.00 0.00 0.00 75 1018.3
20260830204342 83 264 3.0 9.0 0.00 0.00 0.00 74 1018.4
20260830203846 83 252 4.0 9.0 0.00 0.00 0.00 74 1018.4
20260830203832 83 215 3.0 9.0 0.00 0.00 0.00 75 1018.4
20260830202841 82 229 4.0 8.0 0.00 0.00 0.00 78 1018.3
20260830202602 82 192 5.0 10.0 0.00 0.00 0.00 76 1018.3
20260830201840 82 205 5.0 10.0 0.00 0.00 0.00 75 1018.3
20260830201338 82 210 4.0 10.0 0.00 0.00 0.00 78 1018.3
20260830200835 82 191 3.0 10.0 0.00 0.00 0.00 77 1018.4
20260830200557 82 199 3.0 8.0 0.00 0.00 0.00 78 1018.4
20260830195837 82 165 4.0 8.0 0.00 0.00 0.00 78 1018.5
20260830195334 82 260 5.0 12.0 0.00 0.00 0.00 78 1018.8
20260830194834 82 217 5.0 12.0 0.00 0.00 0.00 77 1019.0
20260830194336 82 211 4.0 10.0 0.00 0.00 0.00 77 1019.0
20260830193837 82 217 4.0 11.0 0.00 0.00 0.00 78 1019.1
20260830193337 82 211 5.0 11.0 0.00 0.00 0.00 77 1019.1
20260830192834 82 250 6.0 11.0 0.00 0.00 0.00 78 1019.2
20260830192602 82 221 5.0 12.0 0.00 0.00 0.00 76 1019.2
20260830191835 81 253 5.0 12.0 0.00 0.00 0.00 81 1019.2
20260830191337 81 244 4.0 11.0 0.00 0.00 0.00 79 1019.4
20260830190834 80 223 4.0 9.0 0.00 0.00 0.00 81 1019.5
20260830190334 80 256 5.0 11.0 0.00 0.00 0.00 80 1019.6
20260830185335 81 213 4.0 10.0 0.00 0.00 0.00 79 1019.7
20260830185100 81 244 5.0 12.0 0.00 0.00 0.00 78 1019.8
20260830184334 80 180 5.0 12.0 0.00 0.00 0.00 80 1020.0
20260830183835 81 171 5.0 14.0 0.00 0.00 0.00 81 1020.0
20260830183555 79 213 5.0 13.0 0.00 0.00 0.00 81 1020.0
20260830183432 80 198 6.0 14.0 0.00 0.00 0.00 80 1020.1
20260830182337 80 200 4.0 9.0 0.00 0.00 0.00 80 1020.1
20260830182055 80 219 5.0 9.0 0.00 0.00 0.00 80 1020.0
20260830181333 81 178 4.0 9.0 0.00 0.00 0.00 79 1020.0
20260830180840 81 221 3.0 9.0 0.00 0.00 0.00 80 1020.0
20260830180553 80 200 3.0 8.0 0.00 0.00 0.00 79 1020.1
20260830175835 80 206 3.0 8.0 0.00 0.00 0.00 80 1020.0
20260830175332 80 219 3.0 7.0 0.00 0.00 0.00 81 1020.0
20260830174832 80 194 3.0 9.0 0.00 0.00 0.00 80 1020.1
20260830174549 80 196 3.0 9.0 0.00 0.00 0.00 79 1020.3
20260830173825 81 203 2.0 8.0 0.00 0.00 0.00 79 1020.3
20260830173325 80 215 3.0 6.0 0.00 0.00 0.00 79 1020.2
20260830173042 81 188 3.0 6.0 0.00 0.00 0.00 79 1020.3
20260830172327 80 217 4.0 10.0 0.00 0.00 0.00 81 1020.4
20260830171826 79 205 4.0 10.0 0.00 0.00 0.00 80 1020.5
20260830171551 79 216 3.0 8.0 0.00 0.00 0.00 79 1020.6
20260830170824 79 240 3.0 8.0 0.00 0.00 0.00 81 1020.5
20260830170325 80 230 4.0 10.0 0.00 0.00 0.00 79 1020.6
20260830170108 80 247 4.0 10.0 0.00 0.00 0.00 80 1020.7
20260830165325 79 211 3.0 7.0 0.00 0.00 0.00 81 1020.8
20260830165056 78 211 2.0 7.0 0.00 0.00 0.00 83 1020.8
20260830164806 78 252 2.0 7.0 0.00 0.00 0.00 83 1020.9
20260830163825 78 223 2.0 8.0 0.00 0.00 0.00 82 1020.8
20260830163324 78 252 2.0 8.0 0.00 0.00 0.00 82 1020.9
20260830162825 78 236 2.0 8.0 0.00 0.00 0.00 83 1020.9
20260830162815 78 220 3.0 8.0 0.00 0.00 0.00 83 1021.0
20260830161829 78 220 3.0 8.0 0.00 0.00 0.00 82 1020.9
20260830161332 78 192 3.0 7.0 0.00 0.00 0.00 81 1020.9
20260830160823 78 219 3.0 8.0 0.00 0.00 0.00 81 1021.0
20260830160319 78 225 3.0 8.0 0.00 0.00 0.00 82 1021.1
20260830155818 78 248 2.0 8.0 0.00 0.00 0.00 83 1021.1
20260830155320 77 200 3.0 8.0 0.00 0.00 0.00 84 1021.1
20260830154814 77 216 3.0 8.0 0.00 0.00 0.00 84 1021.3
20260830154315 77 227 2.0 8.0 0.00 0.00 0.00 83 1021.4
20260830154040 77 198 2.0 7.0 0.00 0.00 0.00 84 1021.5
20260830153316 76 236 2.0 7.0 0.00 0.00 0.00 86 1021.6
20260830153033 76 194 1.0 6.0 0.00 0.00 0.00 85 1021.6
20260830152315 76 236 1.0 6.0 0.00 0.00 0.00 86 1021.6
20260830152300 76 227 1.0 6.0 0.00 0.00 0.00 85 1021.6
20260830151314 76 250 1.0 7.0 0.00 0.00 0.00 85 1021.6
20260830150815 76 213 2.0 7.0 0.00 0.00 0.00 86 1021.5
20260830150326 75 205 3.0 12.0 0.00 0.00 0.00 85 1021.5
20260830145850 75 215 4.0 10.0 0.00 0.00 0.00 85 1021.5
20260830145830 75 219 4.0 12.0 0.00 0.00 0.00 86 1021.5
20260830145608 76 233 3.0 9.0 0.00 0.00 0.00 85 1021.4
20260830144315 76 250 3.0 7.0 0.00 0.00 0.00 86 1021.4
20260830143812 76 196 3.0 8.0 0.00 0.00 0.00 86 1021.3
20260830143306 75 197 3.0 8.0 0.00 0.00 0.00 87 1021.4
20260830142804 75 217 2.0 8.0 0.00 0.00 0.00 87 1021.3
20260830142306 75 252 2.0 7.0 0.00 0.00 0.00 88 1021.4
20260830141805 74 168 2.0 4.0 0.00 0.00 0.00 89 1021.4
20260830141304 74 201 2.0 6.0 0.00 0.00 0.00 89 1021.4
20260830140808 73 223 2.0 7.0 0.00 0.00 0.00 89 1021.5
20260830140307 73 219 3.0 7.0 0.00 0.00 0.00 89 1021.7
20260830135809 73 209 3.0 12.0 0.00 0.00 0.00 90 1021.9
20260830135306 73 211 3.0 12.0 0.00 0.00 0.00 90 1021.9
20260830134802 72 223 2.0 7.0 0.00 0.00 0.00 91 1021.9
20260830134301 72 198 3.0 7.0 0.00 0.00 0.00 91 1022.0
20260830133800 72 198 2.0 7.0 0.00 0.00 0.00 91 1022.1
20260830133255 71 192 2.0 6.0 0.00 0.00 0.00 91 1022.0
20260830132757 71 188 2.0 4.0 0.00 0.00 0.00 91 1022.0
20260830132257 71 186 1.0 5.0 0.00 0.00 0.00 92 1022.0
20260830131756 70 193 1.0 6.0 0.00 0.00 0.00 91 1022.0
20260830131255 70 215 1.0 6.0 0.00 0.00 0.00 92 1022.1
20260830130754 69 163 2.0 6.0 0.00 0.00 0.00 92 1022.3
20260830130304 69 163 1.0 6.0 0.00 0.00 0.00 92 1022.4
20260830125750 69 161 1.0 5.0 0.00 0.00 0.00 92 1022.4
20260830125513 69 160 1.0 5.0 0.00 0.00 0.00 92 1022.4
20260830124750 68 173 1.0 3.0 0.00 0.00 0.00 92 1022.5
20260830124248 68 173 1.0 3.0 0.00 0.00 0.00 92 1022.4
20260830124238 67 209 0.0 2.0 0.00 0.00 0.00 92 1022.5
20260830123247 66 209 0.0 0.0 0.00 0.00 0.00 92 1022.6
20260830122746 66 209 0.0 0.0 0.00 0.00 0.00 92 1022.6
20260830122247 65 209 0.0 0.0 0.00 0.00 0.00 92 1022.6
20260830121744 65 209 0.0 0.0 0.00 0.00 0.00 92 1022.6
20260830121241 65 209 0.0 0.0 0.00 0.00 0.00 92 1022.7
20260830120743 65 209 0.0 0.0 0.00 0.00 0.00 92 1022.6
20260830120247 65 209 0.0 0.0 0.00 0.00 0.00 92 1022.6
20260830115739 64 209 0.0 0.0 0.00 0.00 0.00 92 1022.7
20260830115239 64 209 0.0 0.0 0.00 0.00 0.00 92 1022.6
20260830114740 64 209 0.0 0.0 0.00 0.00 0.00 92 1022.6
20260830114242 63 209 0.0 0.0 0.00 0.00 0.00 93 1022.6
20260830113741 63 209 0.0 0.0 0.00 0.00 0.00 92 1022.6
20260830113238 63 209 0.0 0.0 0.00 0.00 0.00 93 1022.6
20260830112734 62 209 0.0 0.0 0.00 0.00 0.00 93 1022.6
20260830112234 62 209 0.0 0.0 0.00 0.00 0.00 93 1022.6
20260830111735 62 209 0.0 0.0 0.00 0.00 0.00 93 1022.6
20260830111234 61 209 0.0 0.0 0.00 0.00 0.00 93 1022.6
20260830110733 61 209 0.0 0.0 0.00 0.00 0.00 93 1022.6
20260830110233 61 209 0.0 0.0 0.00 0.00 0.00 93 1022.6
20260830105733 61 209 0.0 0.0 0.00 0.00 0.00 93 1022.5
20260830105234 61 209 0.0 0.0 0.00 0.00 0.00 93 1022.6
20260830104733 61 209 0.0 0.0 0.00 0.00 0.00 93 1022.6
20260830104234 61 209 0.0 0.0 0.00 0.00 0.00 93 1022.5
20260830103738 60 209 0.0 0.0 0.00 0.00 0.00 93 1022.6
20260830103236 60 209 0.0 0.0 0.00 0.00 0.00 93 1022.6
20260830102732 60 209 0.0 0.0 0.00 0.00 0.00 93 1022.6
20260830102231 60 209 0.0 0.0 0.00 0.00 0.00 93 1022.6
20260830101731 60 209 0.0 0.0 0.00 0.00 0.00 93 1022.6
20260830101231 60 209 0.0 0.0 0.00 0.00 0.00 93 1022.6
20260830100742 59 209 0.0 0.0 0.00 0.00 0.00 93 1022.6
20260830100449 59 209 0.0 0.0 0.00 0.00 0.00 93 1022.6
20260830095728 59 209 0.0 0.0 0.00 0.00 0.00 93 1022.6
20260830095229 59 209 0.0 0.0 0.00 0.00 0.00 93 1022.7